Location: Ferchesar
(52.6477°N, 12.4298°E)
Time: 01:33:25
(UTC+01:00)

Vanguard 2 Rocket - Pass Details

Date: 05 December 2021
Orbit: 554 x 3325 km, 32.9° (Epoch: 21 January)

Event Time Altitude Azimuth Distance (km) Brightness Sun altitude
Rises 17:44:54 0° 205° (SSW) 3,289 10.4 -15.3°
Reaches altitude 10° 17:48:53 10° 174° (S) 2,771 9.5 -15.9°
Maximum altitude 17:51:20 12° 152° (SSE) 2,887 9.3 -16.2°
Drops below altitude 10° 17:54:12 10° 131° (SE) 3,379 9.5 -16.7°
Enters shadow 17:56:18 - 120° (ESE) 3,886 9.7 -17.0°
Sets 18:00:35 0° 106° (ESE) 5,098 - -17.6°
